Location: Trois-Rivi�res
(46.3500°N, 72.5500°W)
Time: 08:41:53
(UTC-05:00)

Vanguard 3 - Visible Passes

Search period start: 19 January 2018 00:00
Search period end: 29 January 2018 00:00
Orbit: 508 x 3264 km, 33.4° (Epoch: 18 January)

Date Brightness Start Highest point End Pass type
(mag) Time Alt. Az. Time Alt. Az. Time Alt. Az.
19 Jan 10.7 01:18:58 33° ESE 01:18:58 33° ESE 01:28:56 10° E visible
19 Jan 10.1 03:23:31 53° SSW 03:25:50 54° S 03:43:58 10° ESE visible
19 Jan 10.5 05:28:05 21° W 05:40:53 42° SSW 05:56:09 10° SE visible
20 Jan 11.3 00:09:06 16° E 00:09:06 16° E 00:11:58 10° E visible
20 Jan 10.3 02:13:40 48° SE 02:13:40 48° SE 02:28:21 10° ESE visible
20 Jan 10.2 04:18:13 39° SW 04:24:58 50° SSW 04:42:10 10° SE visible
20 Jan 10.8 06:23:30 10° W 06:39:03 30° SW 06:52:19 10° SSE visible
21 Jan 10.9 01:03:49 29° ESE 01:03:49 29° ESE 01:11:58 10° E visible
21 Jan 10.1 03:08:23 53° S 03:08:43 54° S 03:27:14 10° ESE visible
21 Jan 10.5 05:12:57 24° WSW 05:23:43 40° SSW 05:39:27 10° SSE visible
21 Jan 11.4 23:54:00 12° E 23:54:00 12° E 23:54:53 10° E visible
22 Jan 10.4 01:58:34 43° SE 01:58:34 43° SE 02:11:26 10° ESE visible
22 Jan 10.2 04:03:08 43° SW 04:07:48 48° SSW 04:25:24 10° SE visible
22 Jan 10.8 06:07:42 11° W 06:21:53 28° SW 06:35:20 10° SSE visible
23 Jan 11.0 00:48:46 24° ESE 00:48:46 24° ESE 00:54:53 10° E visible
23 Jan 10.1 02:53:20 51° S 02:53:20 51° S 03:10:20 10° ESE visible
23 Jan 10.5 04:57:54 27° WSW 05:06:32 38° SSW 05:22:33 10° SSE visible
24 Jan 10.6 01:43:35 37° SE 01:43:35 37° SE 01:54:22 10° ESE visible
24 Jan 10.2 03:48:09 44° SW 03:50:40 45° SSW 04:08:27 10° SE visible
24 Jan 10.9 05:52:43 13° W 06:04:42 26° SW 06:18:03 10° S visible
25 Jan 11.2 00:33:51 18° ESE 00:33:51 18° ESE 00:37:42 10° E visible
25 Jan 10.3 02:38:26 46° SSE 02:38:26 46° SSE 02:53:16 10° ESE visible
25 Jan 10.5 04:43:00 29° WSW 04:49:21 35° SSW 05:05:23 10° SSE visible
26 Jan 10.8 01:28:45 30° SE 01:28:45 30° SE 01:37:11 10° ESE visible
26 Jan 10.2 03:33:19 43° SSW 03:33:35 43° SSW 03:51:16 10° SE visible
26 Jan 10.9 05:37:54 15° WSW 05:47:32 23° SW 06:00:24 10° S visible
27 Jan 11.4 00:19:06 13° ESE 00:19:06 13° ESE 00:20:25 10° ESE visible
27 Jan 10.4 02:23:41 39° SSE 02:23:41 39° SSE 02:36:01 10° SE visible
27 Jan 10.5 04:28:16 29° SW 04:32:13 32° SSW 04:47:57 10° SSE visible
27 Jan 11.2 06:40:49 10° WSW 06:45:12 11° SW 06:49:34 10° SW visible
28 Jan 11.0 01:14:04 23° ESE 01:14:04 23° ESE 01:19:52 10° ESE visible
28 Jan 10.4 03:18:40 38° S 03:18:40 38° S 03:33:53 10° SE visible
28 Jan 10.8 05:23:15 16° WSW 05:30:25 20° SW 05:42:19 10° S visible
